FW0896 Weather Reports


Display with metric or nautical units.
time (UTC)temp
F
wind
direction
speed
MPH
gust
MPH
rain 1hr
in
rain 24hr
in
rain mn
in
humidity
%
barometer
mb
20260505083104 39 318 2.0 4.0 0.00 0.00 0.00 64 1008.4
20260505081602 40 320 3.0 4.0 0.00 0.00 0.00 63 1008.1
20260505080107 40 323 4.0 5.0 0.00 0.00 0.00 61 1008.0
20260505074549 41 325 4.0 5.0 0.00 0.00 0.00 60 1007.7
20260505073049 42 331 5.0 8.0 0.00 0.00 0.00 59 1007.9
20260505071554 42 330 6.0 9.0 0.00 0.00 0.00 58 1007.6
20260505070048 43 334 7.0 10.0 0.00 0.00 0.00 57 1007.4
20260505064543 43 328 5.0 10.0 0.00 0.00 0.00 57 1007.6
20260505063100 43 333 7.0 10.0 0.00 0.00 0.00 57 1007.8
20260505061605 43 329 7.0 10.0 0.00 0.00 0.00 55 1007.6
20260505060037 43 334 4.0 7.0 0.00 0.00 0.00 56 1007.7
20260505054535 42 336 4.0 6.0 0.00 0.00 0.00 57 1007.7
20260505053039 43 303 2.0 4.0 0.00 0.00 0.00 55 1007.6
20260505051552 43 303 3.0 4.0 0.00 0.00 0.00 54 1007.4
20260505041527 44 330 3.0 6.0 0.00 0.00 0.00 53 1007.6
20260505040024 45 333 5.0 7.0 0.00 0.00 0.00 52 1007.5
20260505034517 45 335 4.0 7.0 0.00 0.00 0.00 52 1007.6
20260505033018 46 336 5.0 8.0 0.00 0.00 0.00 52 1007.6
20260505031517 46 338 7.0 10.0 0.00 0.00 0.00 51 1007.4
20260505030012 47 344 10.0 14.0 0.00 0.00 0.00 50 1007.3
20260505024511 48 335 12.0 17.0 0.00 0.00 0.00 50 1007.2
20260505023005 48 339 12.0 18.0 0.00 0.00 0.00 50 1006.8
20260505021503 49 322 14.0 18.0 0.00 0.00 0.00 49 1006.4
20260505020105 50 331 12.0 18.0 0.00 0.00 0.00 47 1006.1
20260505014556 50 328 11.0 17.0 0.00 0.00 0.00 46 1005.7
20260505013100 51 332 11.0 19.0 0.00 0.00 0.00 46 1005.4
20260505011551 51 340 14.0 21.0 0.00 0.00 0.00 45 1005.1
20260505004544 52 324 12.0 18.0 0.00 0.00 0.00 47 1004.7
20260505003042 52 338 15.0 20.0 0.00 0.00 0.00 47 1004.4
20260505001540 53 325 14.0 20.0 0.00 0.00 0.00 47 1004.2
20260505000044 54 325 13.0 21.0 0.00 0.00 0.00 46 1004.0
20260504234536 56 318 12.0 20.0 0.00 0.00 0.00 45 1003.8
20260504233038 56 320 12.0 24.0 0.00 0.00 0.00 44 1003.5
20260504231541 57 329 13.0 19.0 0.00 0.00 0.00 43 1003.4
20260504230039 58 320 11.0 18.0 0.00 0.00 0.00 42 1003.3
20260504224533 58 329 15.0 22.0 0.00 0.00 0.00 41 1003.0
20260504223033 59 305 11.0 16.0 0.00 0.00 0.00 41 1002.7
20260504221533 58 293 10.0 20.0 0.00 0.00 0.00 41 1002.5
20260504220034 60 337 14.0 24.0 0.00 0.00 0.00 37 1002.2
20260504214531 61 333 14.0 20.0 0.00 0.00 0.00 36 1002.1
20260504213031 61 315 14.0 17.0 0.00 0.00 0.00 36 1001.8
20260504211530 61 296 14.0 29.0 0.00 0.00 0.00 36 1001.9
20260504210034 60 330 18.0 25.0 0.00 0.00 0.00 36 1001.9
20260504204532 61 314 14.0 21.0 0.00 0.00 0.00 35 1001.7
20260504203043 61 323 13.0 21.0 0.00 0.00 0.00 31 1001.7
20260504201528 62 325 12.0 21.0 0.00 0.00 0.00 33 1001.7
20260504200125 63 316 13.0 22.0 0.00 0.00 0.00 35 1001.4
20260504194525 61 307 10.0 17.0 0.00 0.00 0.00 39 1001.5
20260504193024 62 333 11.0 20.0 0.00 0.00 0.00 42 1001.5
20260504191526 62 322 10.0 16.0 0.00 0.00 0.00 40 1001.4
20260504190023 62 328 12.0 19.0 0.00 0.00 0.00 38 1001.3
20260504184522 64 316 13.0 23.0 0.00 0.00 0.00 36 1001.3
20260504183029 64 330 16.0 21.0 0.00 0.00 0.00 35 1000.9
20260504181520 64 296 12.0 19.0 0.00 0.00 0.00 37 1000.8
20260504180020 63 309 12.0 18.0 0.00 0.00 0.00 36 1000.6
20260504174518 63 303 9.0 17.0 0.00 0.00 0.00 40 1000.5
20260504173018 63 339 11.0 15.0 0.00 0.00 0.00 41 1000.4
20260504171518 62 327 10.0 17.0 0.00 0.00 0.00 42 1000.4